Alva Beach Observation History
Time Wind Speed Temp Pressure Rel. Hum Rain
04/07:00am SSW 7-10 kts 11.0°c 1020.9 hPa 75% 0.0mm
04/06:30am SSW 7-10 kts 11.0°c 1020.4 hPa 78% 0.0mm
04/06:00am SSW 7-9 kts 11.0°c 1020.2 hPa 83% 0.0mm
04/05:30am SSW 7-9 kts 11.1°c 1019.9 hPa 85% 0.0mm
04/05:00am SSW 6-8 kts 11.6°c 1019.9 hPa 85% 0.0mm
04/04:30am SSW 6-8 kts 11.9°c 1019.9 hPa 87% 0.0mm
04/04:00am SSW 6-9 kts 11.8°c 1020.0 hPa 87% 0.0mm
04/03:30am SSW 6-8 kts 12.2°c 1020.1 hPa 86% 0.0mm
04/03:00am SSW 6-8 kts 12.9°c 1020.2 hPa 84% 0.0mm
04/02:30am SSW 5-7 kts 13.1°c 1020.3 hPa 85% 0.0mm
04/02:00am SSW 5-7 kts 13.8°c 1020.4 hPa 84% 0.0mm
04/01:30am S 5-7 kts 14.5°c 1020.5 hPa 81% 0.0mm
04/01:00am S 5-8 kts 14.5°c 1020.8 hPa 80% 0.0mm
04/12:30am S 5-8 kts 14.4°c 1021.1 hPa 79% 0.0mm
04/12:00am SSW 6-7 kts 14.4°c 1021.2 hPa 79% 0.0mm
Time Wind Speed Temp Pressure Rel. Hum Rain
03/11:30pm SSW 6-8 kts 14.7°c 1021.3 hPa 77% 0.0mm
03/11:00pm SSW 6-7 kts 14.6°c 1021.4 hPa 76% 0.0mm
03/10:30pm SSW 6-7 kts 15.0°c 1021.3 hPa 75% 0.0mm
03/10:00pm SSW 6-9 kts 16.5°c 1021.2 hPa 73% 0.0mm
03/09:30pm SE 7-11 kts 20.8°c 1021.2 hPa 71% 0.0mm
03/09:00pm ESE 7-11 kts 21.1°c 1021.1 hPa 67% 0.0mm
03/08:30pm ESE 8-12 kts 21.5°c 1020.8 hPa 61% 0.0mm
03/08:00pm ESE 8-12 kts 21.3°c 1020.8 hPa 64% 0.0mm
03/07:30pm ESE 8-14 kts 21.3°c 1020.6 hPa 63% 0.0mm
03/07:00pm ESE 8-13 kts 21.5°c 1020.2 hPa 61% 0.0mm
03/06:30pm ESE 9-12 kts 21.2°c 1019.8 hPa 58% 0.0mm
03/06:00pm ESE 9-13 kts 21.3°c 1019.5 hPa 60% 0.0mm
03/05:30pm ESE 10-15 kts 21.5°c 1019.3 hPa 57% 0.0mm
03/05:00pm ESE 11-15 kts 21.8°c 1018.9 hPa 48% 0.0mm
03/04:30pm ESE 10-16 kts 22.2°c 1018.9 hPa 42% 0.0mm
03/04:00pm ESE 10-15 kts 22.4°c 1018.7 hPa 51% 0.0mm
03/03:30pm ESE 10-16 kts 22.6°c 1018.7 hPa 48% 0.0mm
03/03:00pm ESE 9-13 kts 22.7°c 1018.6 hPa 46% 0.0mm
03/02:30pm ESE 9-13 kts 22.9°c 1018.9 hPa 48% 0.0mm
03/02:00pm ESE 8-12 kts 23.0°c 1019.1 hPa 48% 0.0mm
03/01:30pm ESE 9-13 kts 23.1°c 1019.4 hPa 47% 0.0mm
03/01:00pm ESE 10-14 kts 23.0°c 1019.8 hPa 43% 0.0mm
03/12:30pm ESE 9-15 kts 23.4°c 1020.3 hPa 48% 0.0mm
03/12:00pm SE 8-12 kts 23.1°c 1020.7 hPa 48% 0.0mm
03/11:30am SE 7-13 kts 22.3°c 1020.9 hPa 53% 0.0mm
03/11:00am SE 7-12 kts 22.5°c 1021.2 hPa 52% 0.0mm
03/10:30am SE 7-13 kts 22.1°c 1021.5 hPa 55% 0.0mm
03/10:00am SSE 5-9 kts 22.1°c 1021.4 hPa 56% 0.0mm
03/09:30am S 5-9 kts 20.6°c 1021.4 hPa 64% 0.0mm
03/09:00am SSW 7-11 kts 19.4°c 1021.4 hPa 70% 0.0mm
03/08:30am SSW 6-9 kts 18.2°c 1021.1 hPa 74% 0.0mm
03/08:00am SSW 6-9 kts 17.0°c 1020.8 hPa 77% 0.0mm
03/07:30am SSW 6-9 kts 15.8°c 1020.5 hPa 83% 0.0mm
03/07:00am SSW 6-9 kts 15.0°c 1020.0 hPa 88% 0.0mm
03/06:30am SSW 6-9 kts 15.0°c 1019.7 hPa 88% 0.0mm
03/06:00am SSW 6-7 kts 15.3°c 1019.3 hPa 85% 0.0mm
03/05:30am SSW 6-8 kts 15.6°c 1019.1 hPa 87% 0.0mm
03/05:00am SSW 6-8 kts 16.5°c 1019.0 hPa 83% 0.0mm
03/04:30am SE 9-18 kts 20.0°c 1018.7 hPa 70% 0.0mm
03/04:00am S 5-9 kts 16.7°c 1018.6 hPa 88% 0.0mm
03/03:30am S 5-6 kts 17.0°c 1018.8 hPa 89% 0.0mm
03/03:00am S 4-6 kts 17.0°c 1018.7 hPa 91% 0.0mm
03/02:30am SSW 4-5 kts 18.0°c 1018.9 hPa 87% 0.0mm
03/02:00am S 4-6 kts 19.1°c 1019.1 hPa 84% 0.0mm
03/01:30am SE 10-16 kts 21.6°c 1019.1 hPa 72% 0.0mm
03/01:00am SSE 4-6 kts 19.6°c 1019.5 hPa 88% 0.0mm
03/12:30am S 4-24 kts 20.6°c 1019.5 hPa 83% 0.0mm
03/12:00am SE 7-14 kts 21.7°c 1019.6 hPa 80% 0.0mm
Time Wind Speed Temp Pressure Rel. Hum Rain
02/11:30pm SSE 4-10 kts 21.6°c 1019.7 hPa 83% 0.0mm
02/11:00pm ESE 7-11 kts 22.6°c 1019.8 hPa 84% 0.0mm
02/10:30pm ESE 7-10 kts 22.8°c 1019.9 hPa 86% 0.0mm
02/10:00pm SE 6-9 kts 22.8°c 1019.9 hPa 86% 0.0mm
02/09:30pm ESE 6-9 kts 23.1°c 1019.7 hPa 84% 0.0mm
02/09:00pm ESE 6-10 kts 23.1°c 1019.5 hPa 80% 0.0mm
02/08:30pm ESE 6-9 kts 23.2°c 1019.3 hPa 81% 0.0mm
02/08:00pm E 4-5 kts 22.5°c 1019.0 hPa 84% 0.0mm
02/07:30pm E 6-7 kts 23.4°c 1018.6 hPa 79% 0.0mm
02/07:00pm ENE 6-7 kts 23.3°c 1018.2 hPa 80% 0.0mm
02/06:30pm NE 5-6 kts 23.2°c 1017.9 hPa 84% 0.0mm
02/06:00pm NNE 5-7 kts 23.3°c 1017.6 hPa 86% 0.0mm
02/05:30pm NNE 4-6 kts 23.3°c 1017.3 hPa 83% 0.0mm
02/05:00pm NNE 5-7 kts 23.7°c 1017.2 hPa 78% 0.0mm
02/04:30pm NNE 7-9 kts 24.3°c 1017.0 hPa 74% 0.0mm
02/04:00pm NNE 7-9 kts 24.9°c 1016.8 hPa 75% 0.0mm
02/03:30pm NNE 6-8 kts 25.2°c 1016.9 hPa 74% 0.0mm
02/03:00pm NE 6-8 kts 25.0°c 1016.9 hPa 72% 0.0mm
02/02:30pm NE 7-9 kts 25.1°c 1016.8 hPa 72% 0.0mm
02/02:00pm ENE 7-9 kts 24.7°c 1017.1 hPa 74% 0.0mm
02/01:30pm ENE 7-8 kts 24.7°c 1017.3 hPa 74% 0.0mm
02/01:00pm E 6-9 kts 24.6°c 1017.6 hPa 74% 0.0mm
02/12:30pm ENE 7-8 kts 24.9°c 1018.2 hPa 75% 0.0mm
02/12:00pm E 5-7 kts 24.3°c 1018.4 hPa 74% 0.0mm
02/11:30am E 4-6 kts 24.3°c 1018.7 hPa 78% 0.0mm
02/11:00am NE 3-5 kts 25.2°c 1019.1 hPa 73% 0.0mm
02/10:30am SSE 5-8 kts 24.5°c 1019.4 hPa 71% 0.0mm
02/10:00am SSW 4-8 kts 24.0°c 1019.5 hPa 74% 0.0mm
02/09:30am S 3-6 kts 23.2°c 1019.5 hPa 80% 0.0mm
02/09:00am SSE 3-4 kts 22.0°c 1019.4 hPa 86% 0.0mm
02/08:30am S 4-5 kts 20.3°c 1019.3 hPa 96% 0.0mm
02/08:00am SSW 5-7 kts 18.9°c 1019.1 hPa 98% 0.0mm
02/07:30am SSW 4-6 kts 18.1°c 1018.8 hPa 98% 0.0mm
02/07:00am SSW 4-7 kts 17.5°c 1018.5 hPa 98% 0.0mm
02/06:30am SSW 5-7 kts 17.5°c 1018.2 hPa 98% 0.0mm
02/06:00am SSW 5-7 kts 17.5°c 1017.9 hPa 98% 0.0mm
02/05:30am SSW 6-10 kts 17.2°c 1017.4 hPa 98% 0.0mm
02/05:00am WSW 4 kts 17.1°c 1016.5 hPa 97% 0.0mm
02/04:30am SSW 4-5 kts 17.5°c 1016.7 hPa 97% 0.0mm
02/04:00am SW 4-6 kts 17.4°c 1016.8 hPa 97% 0.0mm
02/03:30am SW 4-6 kts 17.7°c 1016.7 hPa 97% 0.0mm
02/03:00am SSW 5-6 kts 18.0°c 1016.8 hPa 97% 0.0mm
02/02:30am SSW 5-6 kts 18.3°c 1017.0 hPa 97% 0.0mm
02/02:00am SSW 5-6 kts 18.4°c 1017.2 hPa 96% 0.0mm
02/01:30am SSW 5-6 kts 18.7°c 1017.5 hPa 95% 0.0mm
02/01:00am S 3-4 kts 19.3°c 1017.4 hPa 95% 0.0mm
02/12:30am ENE 1-3 kts 20.1°c 1017.4 hPa 95% 0.0mm
02/12:00am ENE 3-4 kts 20.2°c 1017.6 hPa 94% 0.0mm